Location: Boiro
(42.6475°N, 8.8834°W)
Time: 01:09:52
(UTC+01:00)

Transit 2A Rocket - Pass Details

Date: 08 December 2021
Orbit: 584 x 917 km, 66.7° (Epoch: 23 January)

Event Time Altitude Azimuth Distance (km) Brightness Sun altitude
Rises 09:35:35 0° 250° (WSW) 3,375 8.0 5.6°
Reaches altitude 10° 09:38:26 10° 263° (W) 2,492 7.3 6.0°
Maximum altitude 09:43:10 25° 318° (NW) 1,720 6.3 6.7°
Drops below altitude 10° 09:48:06 10° 12° (NNE) 2,607 7.5 7.4°
Sets 09:51:10 0° 25° (NNE) 3,563 8.3 7.8°
